Погода в Любиме

Россия / Ярославская область     58°21′43″N   40°41′12″E
темп.,
°C
ветер,
м/с
пор.,
м/с
влажн.,
%
обл.,
%
осадки,
мм/ч
давл.,
гПа
погр.,
м
7 мая, пт
пт700:00+8юз41085100 0.3 1004950
03:00+6юз398793 0.3 1006506
06:00+7юз4782100 0.0 1007923
09:00+8юз4672100 0.0 10071105
12:00+10юз4756100 0.1 10081746
15:00+12зюз484688 0.5 10092159
18:00+12зюз38495 0.4 10101931
21:00+6ююз22740 0.4 101216
8 мая, сб
сб800:00+4ю27815 0.0 1013119
03:00+4ююв3108296 0.0 1013204
06:00+6ююв31274100 0.0 1013368
09:00+11ююв51256100 0.0 10121018
12:00+13ююв61251100 0.0 10102084
15:00+11юв61362100 0.4 10091716
18:00+8ююв51291100 3.1 10081334
21:00+8юв41294100 7.6 10061124
9 мая, вс
вс900:00+8юв3997100 1.6 1004631
03:00+8в1299100 2.9 100473
06:00+8ссв1299100 1.1 100492
09:00+8ссз2598100 2.6 1005390
12:00+6ссз51095100 0.3 1009533
15:00+4сз61295100 0.6 1012766
18:00+5ссз51292100 0.9 1015834
21:00+4ссз4119027 0.9 1018549
10 мая, пн
пн1000:00+2сз311950 0.0 1021270
03:00+1сз25950 0.0 1024102
06:00+3ссз14895 0.0 1027120
09:00+10ссз12611 0.0 1028563
12:00+14зсз12425 0.0 10281314
15:00+15з233647 0.0 10281803
18:00+14зюз125141 0.0 1028162
21:00+8з117198 0.0 103010
11 мая, вт
вт1100:00+7з11775 0.0 103110
03:00+6ююз117890 0.0 103110
06:00+8ююз127399 0.0 103277
09:00+13ююз2357100 0.0 1032390
12:00+17ююз234996 0.0 1032830
15:00+18юз2248100 0.0 10311040
18:00+18ю116330 0.0 103031
21:00+12ююз228037 0.0 103013